User: anonymous   Login
Location: Unspecified
(0.0000°N, 0.0000°E)
Time: 06:01:43
(UTC+00:00)
Language:

RAX-2 - Orbit

View from above orbital plane
View from above orbital plane
View from above satellite
View from above satellite

Ground track
Ground track

The orbit data is extracted from the following two-line orbital elements,

1 37853U 11061D   18055.89533513  .00001251  00000-0  76937-4 0  9996
2 37853 101.7208  55.0087 0173528  64.0016 297.8952 15.02273973344579
Epoch (UTC): 24 February 2018 21:29:16
Eccentricity: 0.0173528
inclination: 101.7208°
perigee height: 439 km
apogee height: 680 km
right ascension of ascending node: 55.0087°
argument of perigee: 64.0016°
revolutions per day: 15.02273973
mean anomaly at epoch: 297.8952°
orbit number at epoch: 34457

The dashed part of the orbit path shows where the satellite is in the earth's shadow,  

DLR